This demonstration page uses our WeatherBlox Daily Observations layout. Learn more.

Left ArrowRight Arrow

39.08367, -84.50855

Hourly Observations for March 9, 2018

Temp ( °F °C ) Dew Point ( °F °C ) Humidity (%) Winds ( mph kmh ) Pressure ( in mb ) Visibility ( mi km ) Precip ( " mm )
12:53 am 00:53 Cloudy 30 -1.1 17 -8.3 58 58 W 7 11 30.08 1019 10 16 N/A
1:53 am 01:53 Cloudy 30 -1.1 17 -8.3 58 58 W 12 19 30.08 1019 10 16 N/A
2:53 am 02:53 Cloudy 30 -1.1 18 -7.8 61 61 W 12 19 30.07 1018 10 16 N/A
3:53 am 03:53 Cloudy 30 -1.1 18 -7.8 61 61 W 12 19 30.07 1018 10 16 N/A
4:53 am 04:53 Clear 26 -3.3 18 -7.8 71 71 SW 7 11 30.08 1019 10 16 N/A
5:53 am 05:53 Clear 26 -3.3 19 -7.2 75 75 SW 7 11 30.09 1019 10 16 N/A
6:53 am 06:53 Clear 25 -3.9 19 -7.2 78 78 SW 6 9 30.09 1019 10 16 N/A
7:53 am 07:53 Sunny 28 -2.2 20 -6.7 72 72 SW 9 15 30.09 1019 10 16 N/A
8:53 am 08:53 Sunny 32 undefined 21 -6.1 64 64 WSW 9 15 30.09 1019 10 16 N/A
9:53 am 09:53 Sunny 36 2.2 21 -6.1 55 55 WSW 10 17 30.09 1019 10 16 N/A
10:53 am 10:53 Mostly Cloudy 37 2.8 20 -6.7 50 50 SSW 10 17 30.08 1019 10 16 N/A
11:53 am 11:53 Mostly Cloudy 40 4.4 22 -5.6 49 49 W 14 22 30.07 1018 10 16 N/A
12:53 pm 12:53 Mostly Cloudy 39 3.9 20 -6.7 46 46 W 12 19 30.05 1018 10 16 N/A
1:53 pm 13:53 Partly Cloudy 42 5.6 20 -6.7 41 41 W 14 22 30.03 1017 10 16 N/A
2:53 pm 14:53 Sunny 44 6.7 20 -6.7 38 38 W 15 24 30.01 1016 10 16 N/A
3:53 pm 15:53 Mostly Sunny 44 6.7 20 -6.7 38 38 W 9 15 29.99 1016 10 16 N/A
4:53 pm 16:53 Partly Cloudy 43 6.1 21 -6.1 42 42 WSW 8 13 30.00 1016 10 16 N/A
5:53 pm 17:53 Mostly Cloudy 42 5.6 18 -7.8 38 38 N N/A 30.01 1016 10 16 N/A
6:53 pm 18:53 Mostly Clear 40 4.4 21 -6.1 47 47 WSW 7 11 30.02 1017 10 16 N/A
7:53 pm 19:53 Clear 38 3.3 23 -5 55 55 N N/A 30.02 1017 10 16 N/A
8:53 pm 20:53 Clear 37 2.8 24 -4.4 59 59 N N/A 30.03 1017 10 16 N/A
9:53 pm 21:53 Mostly Clear 35 1.7 26 -3.3 70 70 N N/A 30.03 1017 10 16 N/A
10:53 pm 22:53 Cloudy 36 2.2 27 -2.8 70 70 NE 3 6 30.04 1017 10 16 N/A
11:53 pm 23:53 Cloudy 36 2.2 26 -3.3 67 67 NNE 5 7 30.02 1017 10 16 N/A

Powered by AerisWeather